"Pseudo-MPEC" for P210KhL

Created 2020 May 24 20:07:17 UT using Find_Orb

Click here for an explanation of pseudo-MPECs

 
 Astrometry: 
     P210KhL  C2020 05 21y)RtJpiU$uJL2p#8FOS:qHK;VAstrometryjjAn4@wfoH6^W;3[AF52
     P210KhL  C2020 05 21FQD8QMredacted;EFDHq:$s*HnS7iPW8Rnv0cck*cwN!(VGNToynF52
     P210KhL  C2020 05 21MLSvu,gd6DVi8Ry!oD_YuhZXD[,xP`GXfT.a`u%v?[?2grg]qMl;F52
     P210KhL  C2020 05 21PJ_217K^N7l\SRW2)QnH=5A*L8Wh^Lsc1_N#!S;*D.fw:xdC)2FFF52
     P210KhL KC2020 05 21GAPtY.qZ54FNb#*;4`7AR![3d'[+X/@%jT;$TCgWM\PavV4Qn5pPA17
     P210KhL KC2020 05 21#418tiG8cL\AaLe(*l4T;jJOvrlAZ4YTWZGA-)9(DeGo:E]H`(LiA17
     P210KhL KC2020 05 21$D-JG)*[b98w`3^CLfh84na(mE*SMVBQ*!G3_\OxuL8.0\5Q$MeLA17
     P210KhL KC2020 05 214G@3Qs`-pk-clickl/g,k*@iw)SY*]EI/3pOG!#-bMyJMEYn+$0jK88
     P210KhL KC2020 05 21ySg(aFk]Eol2evYASA)tS-sf!%k1oj?\L\Lq?Kfe],aq':80tf'_K88
     P210KhL |C2020 05 22*(dun3?3okmQqJv_6Zkw+Llw\fcHH_PheregZDT1Jy$UqCm('MmfH06
     P210KhL |C2020 05 22y9c5ZLj(OOXpcWp=BtqGPhDV5LqS?],YGu9MeA:SLXdCu-ql.G4RH06
     P210KhL |C2020 05 22W$X)Oe#2K63F)a2$=Wj^vg4)8Z7`ICqMUUVt2hEHVkQqWUh^f2vbH06
     P210KhL hC2020 05 22y0ElE6RnY#uhXQbjs-lOSw0RiHs!E5U/[G.qSV+VQsi\630C9P#:L01
     P210KhL KC2020 05 23;0)c]^br9LS`4Kmk0Jv)m3?C=`\GPbN3erB]1H7L]?NLC$U67O=4L01
     P210KhL IC2020 05 23FWKmu!0#56h-2Lr[cDYdF+-$:Di;*5LU]H1mKF)n-;@%P]JHhH!OL01
     P210KhL IC2020 05 23M;MC+BMto)W=:$B:-jG#d-!*V=r$rforQ4Ot?LHmA+%^y)Z9kK:HL01
     P210KhL !C2020 05 235@U7K1.w6'SA;)4/[P#`hjHo[M/)=Oexplanation8.TJp,`w_[l673
     P210KhL !C2020 05 23BwZQo'LVoNrC5E,6WJj[Avur6V?X.y0#ok*;X3V24OREyCts!m/X673
     P210KhL  C2020 05 232B@e,w5w';8:A%p]8fLA?qtbxo5Sy1(AQGMO\$0wqJsvt0ha\cT^N88
     P210KhL  C2020 05 23B,-W_#VK+QVRX_i]p@T@9*o$MV:6\HN$T55n8F?wwO*Vism_9GY-N88
     P210KhL  C2020 05 23+N12*KI@tQx(g4vYZoW1yaAh44MM5`Zu5k-sq0:EblM)$b:ssr4GN88

Station data:
(673) Table Mountain Observatory, Wrightwood  (N34.381488 W117.682170)
   US/California.  Observer W. M. Owen Jr. 0.61-m f/16 reflector + CCD.
(A17) Guidestar Observatory, Weinheim  (N49.545393 E8.681520)  Germany.
(F52) Pan-STARRS 2, Haleakala  (N20.707384 W156.255910)  US/Hawaii. 1.8-m
   Ritchey-Chrétien + CCD.
(H06) RAS Observatory, Mayhill  (N32.903325 W105.528700)  US/New
   Mexico.  Observers E. Guido, G. Sostero, V. Gonano, L. Donato.
(K88) GINOP-KHK, Piszkéstető  (N47.917622 E19.893600)  Hungary.  Observer K.
   Sárneczky. 0.60-m Schmidt + CCD.
(L01) Višnjan Observatory, Tičan  (N45.290900 E13.749300)  Croatia.
   Observers K. Korlević, E. Pettarin. Measurer E. Pettarin. 1.0-m f/2.9
   reflector + CCD.
(N88) Xingming Observatory #3, Nanshan  (N43.471787 E87.173220)  China.

Orbital elements:  P210KhL
   Perihelion 2028 Apr 7.584736 TT = 14:02:01 (JD 2461869.084736)
Epoch 2020 May 23.0 TT = JDT 2458992.5   Ju: 0.3328           AutoNEOCP
M 180.18287509                      (J2000 ecliptic)
n   0.06251063     Peri.  243.20507
a   6.28782043     Node   272.19645
e   0.2126208      Incl.   83.67376
P  15.77           H   11.2     G   0.15   q 4.95089877  Q 7.62474209
From 21 observations 2020 May 21-23; mean residual 0".63
Residuals in arcseconds: 
200521 F52  .44+  .69+    200521 K88  .56-  .51-    200523 L01  .76-  1.3-    
200521 F52  .22+  .72+    200521 K88  .61-  .08+    200523 L01  .61-  1.5-    
200521 F52  .43+  .51+    200522 H06  .54-  .02+    200523 673  .47+  .23-    
200521 F52  .14+  .52+    200522 H06  .06-  .33-    200523 673  .19-  .45+    
200521 A17  .03+  .16-    200522 H06  .04-  .85-    200523 N88  .68-  .44+    
200521 A17  .35+  .49-    200522 L01  1.3-  .36-    200523 N88  .71-  .13-    
200521 A17  .03-  .13+    200523 L01  1.3-  .37-    200523 N88  1.4-  .41+    

Ephemerides (geocentric):
Date (UTC) HH   RA              Dec         delta   r     elong  mag
---- -- -- --  -------------   -----------  ------ ------ -----  ---
2020 05 24 20  18 59 54.986   +45 30 59.36  7.3349 7.6247 102.9 20.5
2020 05 24 21  18 59 53.666   +45 31 17.13  7.3347 7.6247 102.9 20.5
2020 05 24 22  18 59 52.345   +45 31 34.89  7.3345 7.6247 102.9 20.5
2020 05 24 23  18 59 51.023   +45 31 52.65  7.3343 7.6247 102.9 20.5
2020 05 25 00  18 59 49.699   +45 32 10.39  7.3341 7.6247 102.9 20.5
2020 05 25 01  18 59 48.375   +45 32 28.12  7.3339 7.6247 102.9 20.5
2020 05 25 02  18 59 47.049   +45 32 45.84  7.3337 7.6247 102.9 20.5
2020 05 25 03  18 59 45.723   +45 33 03.55  7.3335 7.6247 103.0 20.5
2020 05 25 04  18 59 44.395   +45 33 21.25  7.3333 7.6247 103.0 20.5
2020 05 25 05  18 59 43.066   +45 33 38.94  7.3331 7.6247 103.0 20.5
2020 05 25 06  18 59 41.735   +45 33 56.62  7.3329 7.6247 103.0 20.5
2020 05 25 07  18 59 40.404   +45 34 14.29  7.3327 7.6247 103.0 20.5
2020 05 25 08  18 59 39.072   +45 34 31.95  7.3325 7.6247 103.0 20.5
2020 05 25 09  18 59 37.738   +45 34 49.59  7.3323 7.6247 103.0 20.5
2020 05 25 10  18 59 36.403   +45 35 07.23  7.3321 7.6247 103.0 20.5
2020 05 25 11  18 59 35.067   +45 35 24.86  7.3319 7.6247 103.0 20.5
2020 05 25 12  18 59 33.730   +45 35 42.47  7.3317 7.6247 103.1 20.5
2020 05 25 13  18 59 32.392   +45 36 00.08  7.3316 7.6247 103.1 20.5
2020 05 25 14  18 59 31.052   +45 36 17.67  7.3314 7.6247 103.1 20.5
2020 05 25 15  18 59 29.712   +45 36 35.26  7.3312 7.6247 103.1 20.5
2020 05 25 16  18 59 28.370   +45 36 52.83  7.3310 7.6247 103.1 20.5
2020 05 25 17  18 59 27.027   +45 37 10.39  7.3308 7.6247 103.1 20.5
2020 05 25 18  18 59 25.683   +45 37 27.95  7.3306 7.6247 103.1 20.5
2020 05 25 19  18 59 24.338   +45 37 45.49  7.3304 7.6247 103.1 20.5
2020 05 25 20  18 59 22.992   +45 38 03.02  7.3302 7.6247 103.1 20.5
2020 05 25 21  18 59 21.644   +45 38 20.54  7.3300 7.6247 103.2 20.5
2020 05 25 22  18 59 20.296   +45 38 38.05  7.3298 7.6247 103.2 20.5
2020 05 25 23  18 59 18.946   +45 38 55.55  7.3296 7.6247 103.2 20.5
2020 05 26 00  18 59 17.595   +45 39 13.03  7.3294 7.6247 103.2 20.5
2020 05 26 01  18 59 16.243   +45 39 30.51  7.3292 7.6247 103.2 20.5
2020 05 26 02  18 59 14.890   +45 39 47.98  7.3291 7.6247 103.2 20.5
2020 05 26 03  18 59 13.536   +45 40 05.44  7.3289 7.6247 103.2 20.5
2020 05 26 04  18 59 12.181   +45 40 22.88  7.3287 7.6247 103.2 20.5
2020 05 26 05  18 59 10.824   +45 40 40.32  7.3285 7.6247 103.2 20.5
2020 05 26 06  18 59 09.466   +45 40 57.74  7.3283 7.6247 103.3 20.5
2020 05 26 07  18 59 08.108   +45 41 15.15  7.3281 7.6247 103.3 20.5
2020 05 26 08  18 59 06.748   +45 41 32.56  7.3279 7.6247 103.3 20.5
2020 05 26 09  18 59 05.387   +45 41 49.95  7.3277 7.6247 103.3 20.5
2020 05 26 10  18 59 04.025   +45 42 07.33  7.3275 7.6247 103.3 20.5
2020 05 26 11  18 59 02.661   +45 42 24.70  7.3273 7.6247 103.3 20.5
2020 05 26 12  18 59 01.297   +45 42 42.06  7.3272 7.6247 103.3 20.5
2020 05 26 13  18 58 59.931   +45 42 59.41  7.3270 7.6247 103.3 20.5
2020 05 26 14  18 58 58.564   +45 43 16.74  7.3268 7.6247 103.3 20.5
2020 05 26 15  18 58 57.197   +45 43 34.07  7.3266 7.6247 103.4 20.5
2020 05 26 16  18 58 55.828   +45 43 51.39  7.3264 7.6247 103.4 20.5
2020 05 26 17  18 58 54.458   +45 44 08.69  7.3262 7.6247 103.4 20.5
2020 05 26 18  18 58 53.086   +45 44 25.99  7.3260 7.6247 103.4 20.5
2020 05 26 19  18 58 51.714   +45 44 43.27  7.3258 7.6247 103.4 20.5